Corpus Christi NAS, TX

4:47 PM CDT on April 24, 2017 (GMT -0500)
Corpus Christi Naval Air Station-Truax

Weather History for KNGP - December, 2012

Change the Weather History Date:

Saturday, December 22, 2012

  Actual Average Record
Temperature  
Mean Temperature 62 °F -  
Max Temperature 73 °F 63 °F 80 °F (2007)
Min Temperature 52 °F 47 °F 35 °F (1998)
Degree Days  
Heating Degree Days 2    
Growing Degree Days 12 (Base 50)    
Moisture  
Dew Point 55 °F    
Average Humidity 71    
Maximum Humidity 89    
Minimum Humidity 51    
Precipitation  
Precipitation 0.00 in - - ()
Sea Level Pressure  
Sea Level Pressure 30.24 in    
Wind  
Wind Speed 10 mph (SE)    
Max Wind Speed 16 mph    
Max Gust Speed 24 mph    
Visibility 10 miles    
Events      
Averages and records for this station are not official NWS values.
T = Trace of Precipitation, MM = Missing Value Source: NWS Daily Summary

Daily Weather History Graph

Daily Weather History Graph

Search for Another Location

Airport or City:

Trip Planner

Search our weather history database for the weather conditions in past years. The results will help you decide how hot, cold, wet, or windy it might be!

Date:

Astronomy

Dec. 22, 2012 Rise Set
Actual Time 7:16 AM CST 5:39 PM CST
Civil Twilight 6:50 AM CST 6:05 PM CST
Nautical Twilight 6:21 AM CST 6:34 PM CST
Astronomical Twilight 5:52 AM CST 7:03 PM CST
Moon 1:44 PM CST (12/22) 2:18 AM CST (12/22)
Length of Visible Light 11h 14m
Length of Day
10h 23m
Waxing Gibbous, 74% of the Moon is Illuminated
Dec 22
Waxing Gibbous
Dec 28
Full
Jan 4
Last Quarter
Jan 11
New
Jan 18
First Quarter

Hourly Weather History & Observations

Time (CST) Temp. Dew Point Humidity Pressure Visibility Wind Dir Wind Speed Gust Speed Precip Events Conditions
12:56 AM 55.0 °F 44.1 °F 67% 30.35 in 10.0 mi NE 9.2 mph - N/A   Clear
1:00 AM - - N/A% - - North - - N/A   Unknown
1:56 AM 55.9 °F 48.0 °F 75% 30.34 in 10.0 mi NE 9.2 mph - N/A   Clear
2:56 AM 55.9 °F 50.0 °F 80% 30.33 in 10.0 mi NE 8.1 mph - N/A   Clear
3:56 AM 57.0 °F 48.9 °F 74% 30.32 in 10.0 mi ENE 10.4 mph - N/A   Clear
4:56 AM 55.9 °F 51.1 °F 84% 30.30 in 10.0 mi ENE 6.9 mph - N/A   Clear
5:56 AM 55.0 °F 52.0 °F 89% 30.30 in 10.0 mi East 3.5 mph - N/A   Clear
6:56 AM 52.0 °F 48.9 °F 89% 30.30 in 10.0 mi SSE 5.8 mph - N/A   Clear
7:56 AM 60.1 °F 52.0 °F 75% 30.31 in 10.0 mi SSE 8.1 mph - N/A   Clear
8:56 AM 66.9 °F 52.0 °F 59% 30.32 in 10.0 mi SSE 10.4 mph - N/A   Clear
9:56 AM 70.0 °F 53.1 °F 55% 30.32 in 10.0 mi SSE 15.0 mph - N/A   Clear
10:56 AM 72.0 °F 53.1 °F 51% 30.30 in 10.0 mi SSE 15.0 mph - N/A   Clear
11:56 AM 72.0 °F 54.0 °F 53% 30.28 in 10.0 mi SSE 15.0 mph - N/A   Partly Cloudy
12:56 PM 73.9 °F 55.0 °F 52% 30.23 in 10.0 mi SSE 9.2 mph 24.2 mph N/A   Clear
1:56 PM 71.1 °F 55.0 °F 57% 30.20 in 10.0 mi SSE 16.1 mph 23.0 mph N/A   Overcast
2:56 PM 70.0 °F 57.0 °F 63% 30.18 in 10.0 mi SSE 11.5 mph - N/A   Overcast
3:56 PM 70.0 °F 57.9 °F 65% 30.17 in 10.0 mi SSE 11.5 mph - N/A   Overcast
4:56 PM 69.1 °F 59.0 °F 70% 30.16 in 10.0 mi SSE 11.5 mph - N/A   Overcast
5:56 PM 68.0 °F 59.0 °F 73% 30.15 in 10.0 mi SSE 11.5 mph - N/A   Overcast
6:56 PM 68.0 °F 60.1 °F 76% 30.16 in 10.0 mi SSE 9.2 mph - N/A   Overcast
7:56 PM 68.0 °F 61.0 °F 78% 30.15 in 10.0 mi SSE 10.4 mph - N/A   Overcast
8:56 PM 68.0 °F 62.1 °F 81% 30.14 in 10.0 mi SSE 10.4 mph - N/A   Overcast
9:56 PM 68.0 °F 61.0 °F 78% 30.12 in 10.0 mi South 10.4 mph - N/A   Mostly Cloudy
10:56 PM 66.9 °F 62.1 °F 84% 30.11 in 10.0 mi South 10.4 mph - N/A   Clear
11:56 PM 66.9 °F 62.1 °F 84% 30.11 in 10.0 mi South 9.2 mph - N/A   Clear